KD5HIA Weather Reports


time (UTC)temp
C
wind
direction
speed
KPH
gust
KPH
rain 1hr
cm
rain 24hr
cm
rain mn
cm
humidity
%
barometer
mb
20260906223518 35 135 6.4 11.3 0.00 0.00 0.00 37 1012.2
20260906222518 35 135 6.4 12.9 0.00 0.00 0.00 37 1012.3
20260906221518 35 135 8.0 16.1 0.00 0.00 0.00 38 1012.2
20260906220518 35 135 9.7 16.1 0.00 0.00 0.00 39 1012.3
20260906215518 35 158 8.0 14.5 0.00 0.00 0.00 40 1012.4
20260906214518 35 135 9.7 19.3 0.00 0.00 0.00 40 1012.5
20260906213518 35 113 14.5 20.9 0.00 0.00 0.00 39 1012.6
20260906212518 35 135 11.3 20.9 0.00 0.00 0.00 39 1012.8
20260906211518 35 113 9.7 19.3 0.00 0.00 0.00 40 1012.9
20260906210518 35 135 11.3 16.1 0.00 0.00 0.00 39 1013.1
20260906205518 35 135 14.5 22.5 0.00 0.00 0.00 41 1013.3
20260906204518 35 113 16.1 25.7 0.00 0.00 0.00 40 1013.5
20260906203518 35 90 11.3 22.5 0.00 0.00 0.00 40 1013.6
20260906202518 35 90 12.9 24.1 0.00 0.00 0.00 40 1013.7
20260906201518 35 113 12.9 24.1 0.00 0.00 0.00 40 1013.8
20260906200518 35 135 12.9 24.1 0.00 0.00 0.00 39 1013.9
20260906195518 35 90 11.3 20.9 0.00 0.00 0.00 40 1014.0
20260906194518 35 68 4.8 11.3 0.00 0.00 0.00 40 1013.9
20260906193518 35 90 6.4 12.9 0.00 0.00 0.00 40 1014.2
20260906192518 35 135 8.0 14.5 0.00 0.00 0.00 41 1014.3
20260906191518 35 113 9.7 20.9 0.00 0.00 0.00 41 1014.3
20260906190518 34 68 6.4 14.5 0.00 0.00 0.00 45 1014.4
20260906185518 34 90 8.0 17.7 0.00 0.00 0.00 45 1014.5
20260906184518 33 68 4.8 11.3 0.00 0.00 0.00 46 1014.8
20260906183518 33 68 6.4 12.9 0.00 0.00 0.00 48 1014.9
20260906182516 32 68 4.8 16.1 0.00 0.00 0.00 49 1015.1
20260906181518 32 90 4.8 12.9 0.00 0.00 0.00 49 1015.2
20260906180518 32 90 3.2 9.7 0.00 0.00 0.00 49 1015.3
20260906175518 32 90 4.8 12.9 0.00 0.00 0.00 51 1015.5
20260906174518 32 90 4.8 14.5 0.00 0.00 0.00 50 1015.6
20260906173518 32 90 4.8 12.9 0.00 0.00 0.00 50 1015.8
20260906172518 32 113 6.4 12.9 0.00 0.00 0.00 50 1015.9
20260906171518 31 113 8.0 16.1 0.00 0.00 0.00 52 1016.2
20260906170516 31 113 6.4 12.9 0.00 0.00 0.00 51 1016.2
20260906165518 31 90 3.2 6.4 0.00 0.00 0.00 53 1016.3
20260906164518 31 68 6.4 14.5 0.00 0.00 0.00 52 1016.3
20260906163518 31 68 4.8 9.7 0.00 0.00 0.00 53 1016.3
20260906162518 31 45 1.6 4.8 0.00 0.00 0.00 56 1016.3
20260906161516 31 0.0 3.2 0.00 0.00 0.00 56 1016.5
20260906160516 31 270 1.6 9.7 0.00 0.00 0.00 60 1016.5
20260906155516 30 0.0 3.2 0.00 0.00 0.00 60 1016.5
20260906154516 30 0.0 3.2 0.00 0.00 0.00 61 1016.4
20260906153516 29 203 1.6 3.2 0.00 0.00 0.00 64 1016.2
20260906152519 28 135 1.6 4.8 0.00 0.00 0.00 66 1016.1
20260906151519 28 113 1.6 3.2 0.00 0.00 0.00 66 1016.1
20260906150519 28 135 1.6 3.2 0.00 0.00 0.00 67 1016.0
20260906145516 27 158 1.6 4.8 0.00 0.00 0.00 70 1015.9
20260906144516 27 0.0 3.2 0.00 0.00 0.00 71 1016.0
20260906143516 26 180 1.6 6.4 0.00 0.00 0.00 72 1016.0
20260906142516 26 0.0 0.0 0.00 0.00 0.00 73 1015.9
20260906141516 26 0.0 1.6 0.00 0.00 0.00 74 1015.8
20260906140516 25 0.0 3.2 0.00 0.00 0.00 75 1015.7
20260906135516 25 0.0 0.0 0.00 0.00 0.00 76 1015.7
20260906134516 23 248 1.6 3.2 0.00 0.00 0.00 78 1015.5
20260906133516 23 0.0 3.2 0.00 0.00 0.00 79 1015.4
20260906132516 23 0.0 4.8 0.00 0.00 0.00 80 1015.2
20260906131516 22 0.0 0.0 0.00 0.00 0.00 81 1015.3
20260906130516 22 0.0 0.0 0.00 0.00 0.00 82 1015.2
20260906125516 22 0.0 0.0 0.00 0.00 0.00 82 1014.9
20260906124516 22 0.0 0.0 0.00 0.00 0.00 82 1014.9
20260906123516 22 0.0 0.0 0.00 0.00 0.00 83 1014.7
20260906122516 22 0.0 0.0 0.00 0.00 0.00 82 1014.5
20260906121516 22 0.0 0.0 0.00 0.00 0.00 82 1014.7
20260906120516 22 0.0 1.6 0.00 0.00 0.00 82 1014.7
20260906115516 22 0.0 0.0 0.00 0.00 0.00 81 1014.5
20260906114516 22 270 1.6 1.6 0.00 0.00 0.00 81 1014.3
20260906113516 22 270 3.2 3.2 0.00 0.00 0.00 81 1014.3
20260906112516 22 270 1.6 3.2 0.00 0.00 0.00 80 1014.2
20260906111516 22 0.0 3.2 0.00 0.00 0.00 79 1014.5
20260906110516 22 270 1.6 4.8 0.00 0.00 0.00 79 1014.2
20260906105516 23 270 1.6 3.2 0.00 0.00 0.00 79 1014.2
20260906104516 23 270 3.2 3.2 0.00 0.00 0.00 78 1014.1
20260906103516 23 0.0 3.2 0.00 0.00 0.00 78 1014.2
20260906102516 23 0.0 3.2 0.00 0.00 0.00 77 1014.3
20260906101516 23 248 1.6 3.2 0.00 0.00 0.00 78 1014.3
20260906100516 23 0.0 0.0 0.00 0.00 0.00 78 1014.3
20260906095516 22 0.0 0.0 0.00 0.00 0.00 78 1014.0
20260906094516 22 0.0 0.0 0.00 0.00 0.00 77 1014.0
20260906093516 23 225 1.6 4.8 0.00 0.00 0.00 76 1013.8
20260906092516 23 203 4.8 4.8 0.00 0.00 0.00 77 1013.8
20260906091516 23 180 3.2 4.8 0.00 0.00 0.00 77 1013.7
20260906090516 23 180 3.2 4.8 0.00 0.00 0.00 77 1013.9
20260906085516 23 158 4.8 6.4 0.00 0.00 0.00 76 1014.0
20260906084516 23 158 4.8 8.0 0.00 0.00 0.00 76 1014.0
20260906083516 23 135 4.8 6.4 0.00 0.00 0.00 74 1013.9
20260906082516 23 0.0 1.6 0.00 0.00 0.00 72 1013.9
20260906081516 23 0.0 0.0 0.00 0.00 0.00 72 1013.9
20260906080516 24 0.0 0.0 0.00 0.00 0.00 71 1014.1
20260906075516 25 0.0 0.0 0.00 0.00 0.00 71 1014.0
20260906074516 25 0.0 0.0 0.00 0.00 0.00 70 1014.1
20260906073516 25 0.0 0.0 0.00 0.00 0.00 70 1014.1
20260906072516 25 0.0 0.0 0.00 0.00 0.00 69 1014.3
20260906071516 25 0.0 0.0 0.00 0.00 0.00 69 1014.4
20260906070516 25 0.0 0.0 0.00 0.00 0.00 69 1014.6
20260906065516 25 0.0 0.0 0.00 0.00 0.00 70 1014.6
20260906064516 25 0.0 0.0 0.00 0.00 0.00 69 1014.5
20260906063516 26 0.0 0.0 0.00 0.00 0.00 68 1014.4
20260906062516 26 0.0 0.0 0.00 0.00 0.00 66 1014.7
20260906061516 26 0.0 0.0 0.00 0.00 0.00 67 1014.8
20260906060516 25 0.0 0.0 0.00 0.00 0.00 68 1014.8
20260906055516 26 0.0 1.6 0.00 0.00 0.00 66 1014.9
20260906054516 26 0.0 1.6 0.00 0.00 0.00 66 1014.5
20260906053516 26 180 1.6 3.2 0.00 0.00 0.00 65 1014.6
20260906052516 26 180 3.2 4.8 0.00 0.00 0.00 65 1014.6
20260906051516 26 158 3.2 3.2 0.00 0.00 0.00 64 1014.9
20260906050516 27 158 3.2 3.2 0.00 0.00 0.00 63 1014.9
20260906045516 27 180 1.6 3.2 0.00 0.00 0.00 63 1014.9
20260906044516 27 180 1.6 3.2 0.00 0.00 0.00 62 1014.9
20260906043516 27 180 1.6 3.2 0.00 0.00 0.00 63 1014.8
20260906042516 27 180 3.2 3.2 0.00 0.00 0.00 62 1014.8
20260906041516 27 180 3.2 4.8 0.00 0.00 0.00 61 1014.6
20260906040516 28 180 3.2 6.4 0.00 0.00 0.00 60 1014.6
20260906035516 28 158 4.8 8.0 0.00 0.00 0.00 59 1014.5
20260906034516 28 158 4.8 8.0 0.00 0.00 0.00 58 1014.3
20260906033516 28 158 6.4 9.7 0.00 0.00 0.00 57 1014.3
20260906032516 28 158 6.4 11.3 0.00 0.00 0.00 57 1014.1
20260906031516 29 158 6.4 9.7 0.00 0.00 0.00 56 1013.8
20260906030516 29 158 6.4 9.7 0.00 0.00 0.00 55 1013.5
20260906025519 30 158 6.4 9.7 0.00 0.00 0.00 54 1013.2
20260906024519 30 158 8.0 11.3 0.00 0.00 0.00 54 1013.0
20260906023520 30 158 8.0 16.1 0.00 0.00 0.00 53 1012.9
20260906022516 31 158 8.0 12.9 0.00 0.00 0.00 53 1012.7
20260906021516 31 135 8.0 12.9 0.00 0.00 0.00 52 1012.4
20260906020516 31 135 12.9 17.7 0.00 0.00 0.00 51 1012.4
20260906015516 31 135 8.0 14.5 0.00 0.00 0.00 50 1012.1
20260906014516 32 135 8.0 12.9 0.00 0.00 0.00 48 1011.8
20260906013516 32 135 6.4 12.9 0.00 0.00 0.00 46 1011.8
20260906012516 32 135 9.7 14.5 0.00 0.00 0.00 44 1011.7
20260906011516 32 113 6.4 11.3 0.00 0.00 0.00 43 1011.4
20260906010516 33 113 1.6 6.4 0.00 0.00 0.00 42 1011.5
20260906005516 33 135 11.3 16.1 0.00 0.00 0.00 41 1011.4
20260906004516 34 113 9.7 17.7 0.00 0.00 0.00 41 1011.6
20260906003516 34 90 4.8 6.4 0.00 0.00 0.00 41 1011.5
20260906002516 35 68 11.3 19.3 0.00 0.00 0.00 41 1011.5
20260906001516 35 90 6.4 17.7 0.00 0.00 0.00 41 1011.6
20260906000516 35 90 4.8 17.7 0.00 0.00 0.00 41 1011.5
20260905235516 35 90 6.4 16.1 0.00 0.00 0.00 39 1011.5
20260905234516 35 90 11.3 22.5 0.00 0.00 0.00 40 1011.5
20260905233516 35 90 9.7 22.5 0.00 0.00 0.00 38 1011.3
20260905232516 35 90 8.0 19.3 0.00 0.00 0.00 39 1011.3
20260905231516 36 90 6.4 11.3 0.00 0.00 0.00 38 1011.4
20260905230516 36 90 4.8 12.9 0.00 0.00 0.00 37 1011.4
20260905225516 36 90 11.3 17.7 0.00 0.00 0.00 38 1011.3
20260905224516 36 90 9.7 17.7 0.00 0.00 0.00 38 1011.2